Location: Brachbach
(49.1847°N, 9.7240°E)
Time: 17:14:58
(UTC+00:00)

COSMOS 2251 DEB - Visible Passes

Search period start: 07 October 2024 00:00
Search period end: 17 October 2024 00:00
Orbit: 606 x 613 km, 74.0° (Epoch: 12 August)

Date Brightness Start Highest point End Pass type
(mag) Time Alt. Az. Time Alt. Az. Time Alt. Az.
08 Oct ? 04:51:09 10° SSE 04:54:23 30° ESE 04:57:39 10° NE visible
09 Oct ? 04:44:39 10° S 04:47:59 34° ESE 04:51:22 10° NE visible
10 Oct ? 04:37:50 10° S 04:41:15 39° ESE 04:44:43 10° NE visible
11 Oct ? 04:30:42 10° S 04:34:10 45° ESE 04:37:41 10° NE visible
12 Oct ? 04:23:12 10° S 04:26:43 51° ESE 04:30:18 10° NNE visible
13 Oct ? 04:15:23 10° S 04:18:55 57° ESE 04:22:33 10° NNE visible
14 Oct ? 04:07:14 10° S 04:10:46 64° ESE 04:14:26 10° NNE visible
15 Oct ? 03:59:14 14° SSW 04:02:16 70° ESE 04:05:58 10° NNE visible
16 Oct ? 03:51:44 29° SSW 03:53:26 77° ESE 03:57:08 10° NNE visible
